[Iaude] MPEC T44: 2006 TL [a=0.94,e=0.40,i=11.6,H=23.9]

mpec at si.edu mpec at si.edu
Thu Oct 6 07:44:10 EDT 2016


M.P.E.C. 2016-T44                                Issued 2016 Oct. 6, 11:39 UT
 
     The Minor Planet Electronic Circulars contain information on unusual
         minor planets and routine data on comets.  They are published
    on behalf of Division F of the International Astronomical Union by the
          Minor Planet Center, Smithsonian Astrophysical Observatory,
                          Cambridge, MA 02138, U.S.A.

             Prepared using the Tamkin Foundation Computer Network

                              MPC at CFA.HARVARD.EDU
            URL http://www.minorplanetcenter.net/    ISSN 1523-6714


                                    2006 TL
 
                           Revision to MPEC 2006-T18
 
Additional Observations:
     K06T00L  C2016 10 05.23464 23 03 55.90 +04 00 56.2          21.6 VqET044G96
     K06T00L  C2016 10 05.23892 23 03 54.51 +04 00 33.6          21.4 VqET044G96
     K06T00L  C2016 10 05.24328 23 03 53.09 +04 00 10.9          21.2 VqET044G96
     K06T00L  C2016 10 05.24758 23 03 51.67 +03 59 47.4          21.5 VqET044G96
     K06T00L  C2016 10 05.28413 23 03 39.65 +03 56 33.5          21.0 VqET044G96
     K06T00L  C2016 10 05.28612 23 03 38.98 +03 56 22.7          21.4 VqET044G96
     K06T00L  C2016 10 05.28810 23 03 38.31 +03 56 13.3          21.7 VqET044G96
     K06T00L  C2016 10 05.29017 23 03 37.65 +03 56 01.8          20.9 VqET044G96
     K06T00L KC2016 10 06.25595 22 58 37.18 +02 29 37.0          20.3 RoET044291
     K06T00L KC2016 10 06.25793 22 58 36.51 +02 29 26.6          20.2 RoET044291
     K06T00L KC2016 10 06.25993 22 58 35.82 +02 29 15.5          20.6 RoET044291
 
Observer details:
291 LPL/Spacewatch II.  Observer J. V. Scotti.  1.8-m f/2.7 reflector + CCD.
G96 Mt. Lemmon Survey.  Observer R. G. Matheny.  Measurers E. J. Christensen,
    D. C. Fuls, A. R. Gibbs, A. D. Grauer, J. A. Johnson, R. A. Kowalski,
    S. M. Larson, G. J. Leonard, R. G. Matheny, R. L. Seaman, F. C. Shelly.
    1.5-m reflector + 10K CCD.
 
First and last observations above in comparison with prediction:
Residuals in seconds of arc (or two decimals in degrees), reference and Delta-T
161005 G96 1.32+ 0.37+    161006 291 1.30+ 0.34+    MPO111292   -0.37 day
 
Orbital elements:
2006 TL                                                  Earth MOID = 0.0448 AU
Epoch 2016 July 31.0 TT = JDT 2457600.5                 MPC
M 182.76871              (2000.0)            P               Q
n   1.08113668     Peri.  315.25823     -0.86769079     -0.49423260
a   0.9401900      Node   195.37620     +0.49352049     -0.84359378
e   0.3974369      Incl.   11.60855     +0.05958368     -0.20996112
P   0.91           H   23.9           G   0.15           U   4
Residuals in seconds of arc
061001 G96  0.1-  0.4-    061003 291  0.2-  0.3+    161005 G96  0.4+  0.4+
061001 G96  0.1-  0.4-    061012 291  0.5+  0.5-    161005 G96  0.3+  0.3-
061001 G96  0.3+  0.1-    061012 291  0.1-  0.3+    161005 G96  0.2+  0.4-
061001 G96  0.9-  0.1-    061012 291  0.1+  0.4+    161005 G96  0.1-  0.6-
061001 G96  0.4-  0.1-    061014 F84  0.9-  0.6-    161005 G96  0.4-  0.5+
061001 G96  0.1-  0.1-    061014 F84  0.3-  1.1-    161005 G96  0.1-  0.0
061001 G96  0.0   0.1-    061017 F84  0.7+  0.7+    161006 291  0.1+  0.1+
061001 G96  0.2+  0.1+    061017 F84  0.1+  0.5+    161006 291  0.0   0.4+
061003 291  0.2-  0.3-    161005 G96  0.1-  0.0     161006 291  0.4-  0.2+
061003 291 (0.5+  2.5-)   161005 G96  0.2+  0.0

Ephemeris:
2006 TL                  a,e,i = 0.94, 0.40, 12                  q = 0.5665
Date    TT    R. A. (2000) Decl.     Delta      r     Elong.  Phase     V
2016 09 06    00 44 24.5 +25 50 35   0.3126  1.2604   138.9    31.7    23.2
...
2016 09 21    00 07 19.7 +19 38 57   0.2196  1.2119   159.4    17.0    21.9
...
2016 09 29    23 34 37.2 +12 15 07   0.1834  1.1796   164.6    13.0    21.3
...
2016 10 05    23 05 08.9 +04 22 03   0.1654  1.1525   155.4    21.2    21.3
2016 10 06    22 59 58.1 +02 53 14   0.1633  1.1477   153.1    23.2    21.4
2016 10 07    22 54 44.3 +01 22 12   0.1614  1.1429   150.6    25.4    21.4
...
2016 10 13    22 22 56.0 -08 10 40   0.1554  1.1124   134.6    39.7    21.7
...
2016 10 21    21 41 45.0 -20 27 51   0.1595  1.0679   113.0    59.1    22.2
...
2016 11 05    20 32 50.6 -37 20 18   0.1889  0.9730    78.9    90.1    23.4

A. U. Tomatic                (C) Copyright 2016 MPC           M.P.E.C. 2016-T44




More information about the Iaude mailing list